Lapse_Rate
5.7 5.5 5.5 5.5 5.7 5.9 5.4 5.7 5.5 5.1 4.7 4.4 4.5 4.6 4.7 4.8 5.4 5.5 5.7 6.0 6.0 6.2
6.2 5.8 6.0 5.6 5.5 5.3 5.4 5.5 5.5 5.1 5.0 5.0 5.0 4.8 4.8 5.2 5.7 5.7 5.8 6.2 6.1 6.3
6.6 6.3 5.8 5.6 5.4 5.3 5.3 5.6 5.7 5.5 5.4 5.2 5.0 4.6 4.6 5.2 5.5 5.6 5.9 6.3 6.3 6.3
7.5 7.0 6.4 6.0 5.7 5.7 5.4 5.3 5.3 5.3 5.1 5.2 5.0 4.9 5.0 5.2 5.4 5.8 6.3 6.3 6.2 6.2
7.6 7.6 7.4 7.1 6.5 6.0 6.0 5.3 5.2 5.2 4.9 5.0 5.1 5.2 5.2 5.5 5.6 5.7 5.9 6.1 6.1 6.2
7.7 7.7 7.6 7.3 7.0 6.9 6.6 6.4 6.0 5.2 5.2 5.3 4.9 5.1 5.2 5.3 5.5 5.8 5.9 6.1 6.3 6.3
7.8 7.7 7.5 7.4 7.4 7.3 7.3 7.1 6.9 6.6 6.0 5.6 5.2 5.2 5.5 5.6 5.9 6.1 6.0 6.2 6.3 6.2
7.8 7.8 7.8 7.7 7.6 7.4 7.3 7.4 7.4 7.2 7.0 6.6 6.3 6.4 6.4 6.3 6.3 6.2 6.3 6.2 6.2 6.5
7.7 7.7 7.8 7.9 8.0 7.8 7.6 7.4 7.2 7.1 7.2 7.0 7.0 7.0 6.8 6.6 6.7 6.7 6.3 6.3 6.4 6.6
7.9 7.7 7.7 7.7 7.7 7.8 7.9 7.8 7.7 7.4 7.1 7.0 6.9 7.1 7.2 7.1 6.8 6.2 6.2 6.3 6.3 6.2
8.2 8.1 7.8 7.7 7.6 7.6 7.6 7.5 7.7 7.6 7.5 7.4 7.5 7.4 7.3 7.1 6.7 6.5 6.3 6.1 6.1 6.0
7.7 8.0 8.1 8.0 7.7 7.5 7.3 7.3 7.3 7.5 7.3 7.2 7.3 7.3 7.1 7.0 6.5 6.4 6.4 6.3 6.3 6.1
7.3 7.5 7.5 7.5 7.4 7.5 7.5 7.7 8.0 7.7 7.6 7.3 7.1 7.5 7.5 7.4 6.9 6.4 6.2 6.1 6.2 6.0
7.4 7.4 7.6 7.8 7.8 7.7 8.0 8.0 8.0 8.0 7.6 7.5 7.7 7.5 7.4 7.0 6.6 6.3 6.0 5.9 6.1 6.2
Wind_Speed
13 9 10 11 8 10 11 12 10 9 12 11 12 9 8 6 7 7 7 7 11 7
13 13 11 13 8 8 9 9 8 9 10 10 10 10 7 7 9 9 9 12 9 5
15 14 13 12 11 11 10 12 11 11 10 11 9 8 9 10 11 10 6 7 8 8
16 16 14 13 14 12 10 11 12 12 11 11 11 9 9 9 8 10 9 7 7 11
15 17 17 16 16 14 14 10 12 12 11 11 11 11 11 11 10 10 10 10 8 11
16 16 17 17 16 17 15 14 14 15 13 14 11 13 12 12 11 10 11 11 10 12
17 17 16 16 16 15 16 17 16 16 16 15 15 13 12 13 13 12 12 12 12 13
17 16 16 18 18 17 16 16 16 17 16 16 15 12 12 12 12 11 11 10 5 3
16 16 16 14 16 17 18 17 18 17 18 17 13 18 19 17 11 10 12 6 6 6
18 18 18 16 15 14 15 15 18 18 16 17 17 15 18 18 8 6 4 6 7 5
20 19 17 17 17 16 14 14 12 14 14 8 3 8 11 14 9 9 8 8 8 8
15 17 17 18 17 14 12 11 6 4 7 9 7 9 14 15 11 11 11 10 10 10
11 13 13 11 9 3 6 9 8 10 9 12 10 11 11 12 10 13 11 12 13 18
7 11 9 7 7 10 11 12 11 12 10 10 10 10 15 16 11 12 11 10 9 9
Wind_Direction
171 179 179 177 171 174 176 175 181 170 181 185 185 188 193 193 209 195 188 198 233 220
179 180 181 184 183 181 177 183 171 181 180 178 186 191 181 214 213 200 206 209 219 212
187 186 185 187 192 190 190 186 180 182 188 194 192 189 189 209 215 201 203 206 209 220
188 189 189 192 196 196 189 188 186 188 194 197 200 197 201 209 208 205 213 214 204 222
188 188 192 198 196 195 197 193 201 200 204 204 210 210 210 210 211 212 217 222 212 232
190 193 195 197 199 201 195 197 203 206 207 211 209 212 213 213 214 218 218 222 217 229
197 193 193 199 202 198 200 202 203 209 212 214 216 214 210 213 217 218 222 219 221 230
202 204 201 198 201 203 203 207 205 210 211 214 218 219 211 212 212 215 224 223 204 91
197 200 201 201 200 199 204 205 212 212 212 214 218 218 215 220 221 211 219 179 122 114
194 199 203 200 202 203 201 204 208 211 208 214 221 215 208 203 208 188 146 134 126 110
193 196 197 199 204 209 206 207 208 209 207 188 71 121 115 113 102 89 83 93 102 100
194 187 191 198 200 200 203 203 181 78 98 113 94 99 120 115 106 96 87 83 83 95
185 186 188 188 174 101 112 108 101 87 87 101 102 90 99 113 118 109 102 87 78 77
190 184 153 106 108 108 106 103 97 91 80 80 96 103 112 120 116 118 108 98 97 87